1383868833638,2.19905
1383868893638,2.20588
1383868953638,2.17311
1383869013638,2.21451
1383869073638,2.20519
1383869133638,2.18746
1383869193638,2.19338
1383869253638,2.20278
1383869313638,2.18319
1383869373638,2.19436
1383869433638,2.19702
1383869493638,2.20844
1383869553638,2.21358
1383869613638,2.21339
1383869673638,2.21727
1383869733638,2.17881
1383869793638,2.23283
1383869853638,2.23495
1383869913638,2.23688
1383869973638,2.19450
1383870033638,2.17711
1383870093638,2.19975
1383870153638,2.20507
1383870213638,2.20699
1383870273638,2.20493
1383870333638,2.21236
1383870393638,2.19860
1383870453638,2.21410
1383870513638,2.18705
1383870573638,2.17782
1383870633638,2.21311
1383870693638,2.21212
1383870753638,2.19263
1383870813638,2.20369
1383870873638,2.20878
1383870933638,2.19471
1383870993638,2.18961
1383871053638,2.18817
1383871113638,2.20108
1383871173638,2.21223
1383871233638,2.20918
1383871293638,2.22090
1383871353638,2.18303
1383871413638,2.19034
1383871473638,2.18182
1383871533638,2.19118
1383871593638,2.19212
1383871653638,2.20895
1383871713638,2.19788
1383871773638,2.20030
1383871833638,2.22537
1383871893638,2.20917
1383871953638,2.19564
1383872013638,2.17848
1383872073638,2.21003
1383872133638,2.19453
1383872193638,2.20831
1383872253638,2.20231
1383872313638,2.21110
1383872373638,2.20082
1383872433648,2.20127
1383872493648,2.20794
1383872553648,2.20117
1383872613648,2.19349
1383872673648,2.23226
1383872733648,2.19533
1383872793648,2.19929
1383872853648,2.19729
1383872913648,2.21707
1383872973648,2.20871
1383873033648,2.21710
1383873093648,2.19018
1383873153648,2.22320
1383873213648,2.22576
1383873273648,2.20415
1383873333648,2.21021
1383873393648,2.20815
1383873453648,2.23162
1383873513648,2.23118
1383873573648,2.21207
1383873633648,2.20456
1383873693648,2.21725
1383873753648,2.22375
1383873813648,2.24168
1383873873648,2.22229
1383873933648,2.22011
1383873993648,2.25283
1383874053648,2.23655
1383874113648,2.21691
1383874173648,2.20325
1383874233648,2.23255
1383874293648,2.22690
1383874353648,2.22102
1383874413648,2.22155
1383874473648,2.20920
1383874533648,2.22236
1383874593648,2.25191
1383874653648,2.22091
1383874713648,2.22639
1383874773648,2.22989
1383874833648,2.23530
1383874893648,2.24000
1383874953648,2.22683
1383875013648,2.21648
1383875073648,2.23430
1383875133648,2.21938
1383875193648,2.23452
1383875253648,2.26456
1383875313648,2.24201
1383875373648,2.22661
1383875433648,2.23577
1383875493648,2.21434
1383875553648,2.21423
1383875613648,2.19967
1383875673648,2.22914
1383875733648,2.25834
1383875793648,2.26877
1383875853648,2.22875
1383875913648,2.20869
1383875973648,2.25108
1383876033658,2.24285
1383876093658,2.22138
1383876153658,2.23029
1383876213658,2.21914
1383876273658,2.21843
1383876333658,2.23260
1383876393658,2.23584
1383876453658,2.20599
1383876513658,2.24307
1383876573658,2.22355
1383876633658,2.24419
1383876693658,2.21957
1383876753658,2.24380
1383876813658,2.25104
1383876873658,2.25695
1383876933658,2.25514
1383876993658,2.25089
1383877053658,2.18303
1383877113658,2.25163
1383877173658,2.24278
1383877233658,2.24667
1383877293658,2.25718
1383877353658,2.23146
1383877413658,2.27322
1383877473658,2.24670
1383877533658,2.25428
1383877593658,2.23471
1383877653658,2.25416
1383877713658,2.25245
1383877773658,2.25407
1383877833658,2.23847
1383877893658,2.23901
1383877953658,2.27343
1383878013658,2.26223
1383878073658,2.25833
1383878133658,2.24328
1383878193658,2.28326
1383878253658,2.27472
1383878313658,2.28244
1383878373658,2.30537
1383878433658,2.31611
1383878493658,2.32461
1383878553658,2.33054
1383878613658,2.33534
1383878673658,2.33642
1383878733658,2.33191
1383878793658,2.33031
1383878853658,2.32217
1383878913658,2.30591
1383878973658,2.31446
1383879033658,2.30806
1383879093658,2.29544
1383879153658,2.31487
1383879213658,2.28533
1383879273658,2.27833
1383879333658,2.26421
1383879393658,2.30662
1383879453658,2.30966
1383879513658,2.28064
1383879573658,2.28552
1383879633667,2.33868
1383879693667,2.27316
1383879753667,2.28377
1383879813667,2.28330
1383879873667,2.29797
1383879933667,2.28380
1383879993667,2.29871
1383880053667,2.30976
1383880113667,2.27610
1383880173667,2.28388
1383880233667,2.29989
1383880293667,2.30545
1383880353667,2.29653
1383880413667,2.29958
1383880473667,2.32291
1383880533667,2.31262
1383880593667,2.31412
1383880653667,2.33842
1383880713667,2.29947
1383880773667,2.31552
1383880833667,2.30289
1383880893667,2.30186
1383880953667,2.27773
1383881013667,2.28476
1383881073667,2.29850
1383881133667,2.31780
1383881193667,2.27725
1383881253667,2.30642
1383881313667,2.25711
1383881373667,2.28471
1383881433667,2.29259
1383881493667,2.27466
1383881553667,2.31632
1383881613667,2.29454
1383881673667,2.30231
1383881733667,2.29306
1383881793667,2.27539
1383881853667,2.28099
1383881913667,2.27777
1383881973667,2.27536
1383882033667,2.25752
1383882093667,2.26224
1383882153667,2.24978
1383882213667,2.30340
1383882273667,2.30497
1383882333667,2.27095
1383882393667,2.25887
1383882453667,2.25336
1383882513667,2.25501
1383882573667,2.26289
1383882633667,2.28481
1383882693667,2.27964
1383882753667,2.25846
1383882813667,2.26148
1383882873667,2.24075
1383882933667,2.27442
1383882993667,2.25988
1383883053667,2.24941
1383883113667,2.26678
1383883173667,2.28315
1383883233677,2.24650
1383883293677,2.25309
1383883353677,2.27793
1383883413677,2.26120
1383883473677,2.28106
1383883533677,2.24541
1383883593677,2.27033
1383883653677,2.27476
1383883713677,2.25432
1383883773677,2.25518
1383883833677,2.22336
1383883893677,2.22262
1383883953677,2.26708
1383884013677,2.25358
1383884073677,2.26055
1383884133677,2.38368
1383884193677,2.46959
1383884253677,2.27883
1383884313677,2.26832
1383884373677,2.25421
1383884433677,2.23838
1383884493677,2.21448
1383884553677,2.28689
1383884613677,2.31151
1383884673677,2.57412
1383884733677,2.53536
1383884793677,2.66069
1383884853677,2.75801
1383884913677,2.83763
1383884973677,2.70653
1383885033677,2.63052
1383885093677,2.52589
1383885153677,2.54803
1383885213677,2.47394
1383885273677,2.46394
1383885333677,2.37838
1383885393677,2.35704
1383885453677,2.35365
1383885513677,2.36557
1383885573677,2.31730
1383885633677,2.29003
1383885693677,2.28597
1383885753677,2.24911
1383885813677,2.24423
1383885873677,2.22674
1383885933677,2.26646
1383885993677,2.24265
1383886053677,2.25768
1383886113677,2.23001
1383886173677,2.23450
1383886233677,2.24680
1383886293677,2.21522
1383886353677,2.21518
1383886413677,2.21578
1383886473677,2.21521
1383886533677,2.22572
1383886593677,2.22595
1383886653677,2.22046
1383886713677,2.23406
1383886773677,2.22395
1383886833686,2.23541
1383886893686,2.22131
1383886953686,2.24089
1383887013686,2.19983
1383887073686,2.21861
1383887133686,2.24715
1383887193686,2.23904
1383887253686,2.22035
1383887313686,2.21616
1383887373686,2.22652
1383887433686,2.22841
1383887493686,2.22966
1383887553686,2.24956
1383887613686,2.23482
1383887673686,2.23941
1383887733686,2.22071
1383887793686,2.24326
1383887853686,2.21876
1383887913686,2.21747
1383887973686,2.23260
1383888033686,2.22270
1383888093686,2.23447
1383888153686,2.25057
1383888213686,2.24763
1383888273686,2.24609
1383888333686,2.22264
1383888393686,2.23435
1383888453686,2.22399
1383888513686,2.23421
1383888573686,2.23681
1383888633686,2.24851
1383888693686,2.22853
1383888753686,2.25934
1383888813686,2.25020
1383888873686,2.22869
1383888933686,2.24460
1383888993686,2.25072
1383889053686,2.23544
1383889113686,2.23616
1383889173686,2.24163
1383889233686,2.23520
1383889293686,2.22886
1383889353686,2.22687
1383889413686,2.22265
1383889473686,2.24114
1383889533686,2.22049
1383889593686,2.22251
1383889653686,2.24272
1383889713686,2.23563
1383889773686,2.22133
1383889833686,2.21944
1383889893686,2.25595
1383889953686,2.24554
1383890013686,2.24967
1383890073686,2.23715
1383890133686,2.28566
1383890193686,2.22618
1383890253686,2.24586
1383890313686,2.20639
1383890373686,2.25967
1383890433696,2.24001
1383890493696,2.21862
1383890553696,2.24959
1383890613696,2.27302
1383890673696,2.24237
1383890733696,2.26837
1383890793696,2.25485
1383890853696,2.26184
1383890913696,2.13823
1383890973696,2.26771
1383891033696,2.27249
1383891093696,2.27105
1383891153696,2.24227
1383891213696,2.26219
1383891273696,2.26111
1383891333696,2.26206
1383891393696,2.27123
1383891453696,2.21470
1383891513696,2.26481
1383891573696,2.26038
1383891633696,2.29023
1383891693696,2.27430
1383891753696,2.25930
1383891813696,2.23951
1383891873696,2.24013
1383891933696,2.25343
1383891993696,2.24904
1383892053696,2.25184
1383892113696,2.27280
1383892173696,2.25023
1383892233696,2.25894
1383892293696,2.26832
1383892353696,2.27182
1383892413696,2.22879
1383892473696,2.25203
1383892533696,2.24135
1383892593696,2.26872
1383892653696,2.22644
1383892713696,2.25259
1383892773696,2.25834
1383892833696,2.26702
1383892893696,2.24415
1383892953696,2.26669
1383893013696,2.26339
1383893073696,2.26777
1383893133696,2.25683
1383893193696,2.29399
1383893253696,2.23747
1383893313696,2.28001
1383893373696,2.24126
1383893433696,2.24182
1383893493696,2.25799
1383893553696,2.25902
1383893613696,2.26804
1383893673696,2.27389
1383893733696,2.25690
1383893793696,2.24947
1383893853696,2.22307
1383893913696,2.26154
1383893973696,2.24480
1383894033706,2.24964
1383894093706,2.25540
1383894153706,2.24053
1383894213706,2.27761
1383894273706,2.24155
1383894333706,2.24377
1383894393706,2.25594
1383894453706,2.28724
1383894513706,2.24088
1383894573706,2.25939
1383894633706,2.24736
1383894693706,2.25308
1383894753706,2.26146
1383894813706,2.24503
1383894873706,2.24233
1383894933706,2.26573
1383894993706,2.24154
1383895053706,2.24382
1383895113706,2.23670
1383895173706,2.38165
1383895233706,2.21191
1383895293706,2.27616
1383895353706,2.22271
1383895413706,2.25260
1383895473706,2.24250
1383895533706,2.26216
1383895593706,2.24615
1383895653706,2.25537
1383895713706,2.25887
1383895773706,2.23410
1383895833706,2.25341
1383895893706,2.20519
1383895953706,2.24860
1383896013706,2.24138
1383896073706,2.25427
1383896133706,2.25164
1383896193706,2.24992
1383896253706,2.23977
1383896313706,2.23404
1383896373706,2.23439
1383896433706,2.24150
1383896493706,2.24889
1383896553706,2.25544
1383896613706,2.25690
1383896673706,2.26229
1383896733706,2.24978
1383896793706,2.27801
1383896853706,2.28280
1383896913706,2.27310
1383896973706,2.28591
1383897033706,2.26262
1383897093706,2.24673
1383897153706,2.28375
1383897213706,2.26675
1383897273706,2.26046
1383897333706,2.26157
1383897393706,2.29332
1383897453706,2.25716
1383897513706,2.29071
1383897573706,2.34097
1383897633716,2.29095
1383897693716,2.29186
1383897753716,2.28296
1383897813716,2.28256
1383897873716,2.27336
1383897933716,2.26992
1383897993716,2.26736
1383898053716,2.28947
1383898113716,2.27230
1383898173716,2.31142
1383898233716,2.26239
1383898293716,2.27103
1383898353716,2.27477
1383898413716,2.27770
1383898473716,2.27175
1383898533716,2.30041
1383898593716,2.27385
1383898653716,2.25846
1383898713716,2.27115
1383898773716,2.28706
1383898833716,2.26801
1383898893716,2.27181
1383898953716,2.29896
1383899013716,2.28780
1383899073716,2.28487
1383899133716,2.27458
1383899193716,2.28330
1383899253716,2.26051
1383899313716,2.28001
1383899373716,2.29334
1383899433716,2.27278
1383899493716,2.26497
1383899553716,2.27715
1383899613716,2.29363
1383899673716,2.27358
1383899733716,2.29025
1383899793716,2.30566
1383899853716,2.29697
1383899913716,2.29828
1383899973716,2.29489
1383900033716,2.27947
1383900093716,2.27674
1383900153716,2.28284
1383900213716,2.30003
1383900273716,2.28553
1383900333716,2.28647
1383900393716,2.26137
1383900453716,2.28341
1383900513716,2.28643
1383900573716,2.26896
1383900633716,2.29729
1383900693716,2.25418
1383900753716,2.29658
1383900813716,2.30732
1383900873716,2.28208
1383900933716,2.28788
1383900993716,2.27457
1383901053716,2.28909
1383901113716,2.28170
1383901173716,2.28737
1383901233726,2.26948
1383901293726,2.28145
1383901353726,2.26714
1383901413726,2.28134
1383901473726,2.28428
1383901533726,2.27617
1383901593726,2.27777
1383901653726,2.29240
1383901713726,2.29246
1383901773726,2.27426
1383901833726,2.28122
1383901893726,2.28282
1383901953726,2.26477
1383902013726,2.28231
1383902073726,2.27306
1383902133726,2.26527
1383902193726,2.30956
1383902253726,2.32312
1383902313726,2.33279
1383902373726,2.28213
1383902433726,2.28221
1383902493726,2.29551
1383902553726,2.29437
1383902613726,2.29819
1383902673726,2.28674
1383902733726,2.31475
1383902793726,2.32185
1383902853726,2.36100
1383902913726,2.41067
1383902973726,2.50836
1383903033726,2.53067
1383903093726,2.48478
1383903153726,2.40913
1383903213726,2.39722
1383903273726,2.34340
1383903333726,2.34576
1383903393726,2.36852
1383903453726,2.32276
1383903513726,2.31526
1383903573726,2.28895
1383903633726,2.30406
1383903693726,2.30539
1383903753726,2.25647
1383903813726,2.29827
1383903873726,2.31411
1383903933726,2.29092
1383903993726,2.30869
1383904053726,2.31339
1383904113726,2.31055
1383904173726,2.30327
1383904233726,2.29731
1383904293726,2.31216
1383904353726,2.29106
1383904413726,2.30326
1383904473726,2.33195
1383904533726,2.28678
1383904593726,2.30482
1383904653726,2.32943
1383904713726,2.32228
1383904773726,2.30938
1383904833737,2.30973
1383904893737,2.32811
1383904953737,2.29579
1383905013737,2.33193
1383905073737,2.32567
1383905133737,2.33908
1383905193737,2.32518
1383905253737,2.32131
1383905313737,2.35818
1383905373737,2.30689
1383905433737,2.31671
1383905493737,2.32192
1383905553737,2.34592
1383905613737,2.34725
1383905673737,2.30471
1383905733737,2.31344
1383905793737,2.31377
1383905853737,2.30187
1383905913737,2.31324
1383905973737,2.31621
1383906033737,2.04244
1383906093737,2.31139
1383906153737,2.32262
1383906213737,2.32601
1383906273737,2.32692
1383906333737,2.32767
1383906393737,2.34517
1383906453737,2.32370
1383906513737,2.29177
1383906573737,2.34572
1383906633737,2.33130
1383906693737,2.34503
1383906753737,2.30836
1383906813737,2.33049
1383906873737,2.33370
1383906933737,2.33369
1383906993737,2.33660
1383907053737,2.34479
1383907113737,2.35369
1383907173737,2.34579
1383907233737,2.37461
1383907293737,2.35306
1383907353737,2.37367
1383907413737,2.35926
1383907473737,2.35045
1383907533737,2.37490
1383907593737,2.32798
1383907653737,2.33891
1383907713737,2.35868
1383907773737,2.33946
1383907833737,2.36503
1383907893737,2.31531
1383907953737,2.37333
1383908013737,2.32849
1383908073737,2.36751
1383908133737,2.34737
1383908193737,2.33425
1383908253737,2.31126
1383908313737,2.38295
1383908373737,2.35659
1383908433748,2.34346
1383908493748,2.33897
1383908553748,2.32976
1383908613748,2.36997
1383908673748,2.34985
1383908733748,2.35826
1383908793748,2.35765
1383908853748,2.35663
1383908913748,2.36707
1383908973748,2.37483
1383909033748,2.33257
1383909093748,2.35005
1383909153748,2.35972
1383909213748,2.32171
1383909273748,2.34223
1383909333748,2.34568
1383909393748,2.33888
1383909453748,2.32941
1383909513748,2.35885
1383909573748,2.35876
1383909633748,2.35293
1383909693748,2.32544
1383909753748,2.34382
1383909813748,2.34472
1383909873748,2.32240
1383909933748,2.30931
1383909993748,2.30615
1383910053748,2.32171
1383910113748,2.34497
1383910173748,2.33442
1383910233748,2.33198
1383910293748,2.49947
1383910353748,2.31579
1383910413748,2.35205
1383910473748,2.33550
1383910533748,2.37480
1383910593748,2.33096
1383910653748,2.33884
1383910713748,2.31738
1383910773748,2.33223
1383910833748,2.32414
1383910893748,2.36456
1383910953748,2.34111
1383911013748,2.34774
1383911073748,2.35134
1383911133748,2.31694
1383911193748,2.32196
1383911253748,2.33361
1383911313748,2.35227
1383911373748,2.32382
1383911433748,2.30860
1383911493748,2.32236
1383911553748,2.31565
1383911613748,2.34570
1383911673748,2.34455
1383911733748,2.34005
1383911793748,2.42911
1383911853748,2.37088
1383911913748,2.32879
1383911973748,2.35047
1383912033759,2.31665
1383912093759,2.35608
1383912153759,2.33482
1383912213759,2.32556
1383912273759,2.33043
1383912333759,2.30719
1383912393759,2.29610
1383912453759,2.31675
1383912513759,2.30799
1383912573759,2.32845
1383912633759,2.33956
1383912693759,2.33479
1383912753759,2.33870
1383912813759,2.33883
1383912873759,2.34035
1383912933759,2.31851
1383912993759,2.36344
1383913053759,2.32906
1383913113759,2.34118
1383913173759,2.33586
1383913233759,2.35276
1383913293759,2.34877
1383913353759,2.30992
1383913413759,2.33620
1383913473759,2.36201
1383913533759,2.31251
1383913593759,2.32668
1383913653759,2.33596
1383913713759,2.32214
1383913773759,2.32159
1383913833759,2.33541
1383913893759,2.32841
1383913953759,2.34288
1383914013759,2.26695
1383914073759,2.32042
1383914133759,2.33012
1383914193759,2.32687
1383914253759,2.33287
1383914313759,2.31654
1383914373759,2.32864
1383914433759,2.33728
1383914493759,2.30451
1383914553759,2.32739
1383914613759,2.35080
1383914673759,2.33175
1383914733759,2.30742
1383914793759,2.32658
1383914853759,2.30700
1383914913759,2.34498
1383914973759,2.33070
1383915033759,2.34852
1383915093759,2.36790
1383915153759,2.32718
1383915213759,2.34063
1383915273759,2.33265
1383915333759,2.30921
1383915393759,2.32605
1383915453759,2.33327
1383915513759,2.29322
1383915573759,2.30203
1383915633784,2.31508
1383915693784,2.31207
1383915753784,2.33817
1383915813784,2.32296
1383915873784,2.31906
1383915933784,2.31483
1383915993784,2.30709
1383916053784,2.29000
1383916113784,2.31761
1383916173784,2.33218
1383916233784,2.33826
1383916293784,2.27847
1383916353784,2.32373
1383916413784,2.31251
1383916473784,2.31408
1383916533784,2.30011
1383916593784,2.33832
1383916653784,2.33196
1383916713784,2.34287
1383916773784,2.28701
1383916833784,2.30192
1383916893784,2.29461
1383916953784,2.31164
1383917013784,2.32841
1383917073784,2.30068
1383917133784,2.33195
1383917193784,2.32418
1383917253784,2.31160
1383917313784,2.33459
1383917373784,2.31717
1383917433784,2.30845
1383917493784,2.32364
1383917553784,2.34289
1383917613784,2.31206
1383917673784,2.31600
1383917733784,2.31221
1383917793784,2.28744
1383917853784,2.33163
1383917913784,2.33629
1383917973784,2.30531
1383918033784,2.31861
1383918093784,2.31453
1383918153784,2.32697
1383918213784,2.32006
1383918273784,2.31723
1383918333784,2.29570
1383918393784,2.27747
1383918453784,2.30448
1383918513784,2.32313
1383918573784,2.31637
1383918633784,2.29880
1383918693784,2.29092
1383918753784,2.30599
1383918813784,2.28426
1383918873784,2.28573
1383918933784,2.33148
1383918993784,2.30614
1383919053784,2.31022
1383919113784,2.29063
1383919173784,2.32766
1383919233795,2.34081
1383919293795,2.32944
1383919353795,2.30067
1383919413795,2.30886
1383919473795,2.31277
1383919533795,2.28630
1383919593795,2.32008
1383919653795,2.27687
1383919713795,2.30191
1383919773795,2.29420
1383919833795,2.26571
1383919893795,2.30915
1383919953795,2.30011
1383920013795,2.28037
1383920073795,2.34343
1383920133795,2.30716
1383920193795,2.26754
1383920253795,2.30320
1383920313795,2.30136
1383920373795,2.31698
1383920433795,2.29565
1383920493795,2.30587
1383920553795,2.29398
1383920613795,2.28345
1383920673795,2.27339
1383920733795,2.28337
1383920793795,2.29439
1383920853795,2.27653
1383920913795,2.28962
1383920973795,2.28405
1383921033795,2.27643
1383921093795,2.28248
1383921153795,2.30041
1383921213795,2.29230
1383921273795,2.32083
1383921333795,2.28621
1383921393795,2.30421
1383921453795,2.31319
1383921513795,2.27860
1383921573795,2.30425
1383921633795,2.28629
1383921693795,2.26320
1383921753795,2.29759
1383921813795,2.28074
1383921873795,2.29333
1383921933795,2.27999
1383921993795,2.28956
1383922053795,2.30322
1383922113795,2.27741
1383922173795,2.30098
1383922233795,2.30629
1383922293795,2.29186
1383922353795,2.29701
1383922413795,2.29311
1383922473795,2.29373
1383922533795,2.30888
1383922593795,2.29888
1383922653795,2.30406
1383922713795,2.28242
1383922773795,2.29186
1383922833807,2.28426
1383922893807,2.30785
1383922953807,2.28691
1383923013807,2.29424
1383923073807,2.29189
1383923133807,2.27777
1383923193807,2.30602
1383923253807,2.29713
1383923313807,2.29703
1383923373807,2.27821
1383923433807,2.28357
1383923493807,2.28875
1383923553807,2.32778
1383923613807,2.29693
1383923673807,2.31600
1383923733807,2.31445
1383923793807,2.30135
1383923853807,2.27892
1383923913807,2.29940
1383923973807,2.29830
1383924033807,2.27799
1383924093807,2.27426
1383924153807,2.28979
1383924213807,2.26738
1383924273807,2.29041
1383924333807,2.29975
1383924393807,2.31249
1383924453807,2.29628
1383924513807,2.31456
1383924573807,2.29027
1383924633807,2.29946
1383924693807,2.27812
1383924753807,2.28579
1383924813807,2.29464
1383924873807,2.30126
1383924933807,2.28445
1383924993807,2.30986
1383925053807,2.27482
1383925113807,2.28324
1383925173807,2.29237
1383925233807,2.29716
1383925293807,2.29723
1383925353807,2.30063
1383925413807,2.28366
1383925473807,2.28319
1383925533807,2.29540
1383925593807,2.29987
1383925653807,2.28630
1383925713807,2.30465
1383925773807,2.29289
1383925833807,2.30943
1383925893807,2.28153
1383925953807,2.30750
1383926013807,2.29050
1383926073807,2.27390
1383926133807,2.31175
1383926193807,2.29242
1383926253807,2.26862
1383926313807,2.27445
1383926373807,2.25432
1383926433818,2.30326
1383926493818,2.27988
1383926553818,2.28356
1383926613818,2.29077
1383926673818,2.29272
1383926733818,2.23930
1383926793818,2.51661
1383926853818,2.29202
1383926913818,2.30973
1383926973818,2.30129
1383927033818,2.28916
1383927093818,2.26866
1383927153818,2.34719
1383927213818,2.29906
1383927273818,2.27370
1383927333818,2.29355
1383927393818,2.31342
1383927453818,2.27411
1383927513818,2.27577
1383927573818,2.29101
1383927633818,2.27334
1383927693818,2.27199
1383927753818,2.29916
1383927813818,2.26891
1383927873818,2.27399
1383927933818,2.27127
1383927993818,2.27675
1383928053818,2.28540
1383928113818,2.29543
1383928173818,2.28534
1383928233818,2.28242
1383928293818,2.30163
1383928353818,2.31274
1383928413818,2.28254
1383928473818,2.28180
1383928533818,2.30965
1383928593818,2.31081
1383928653818,2.26243
1383928713818,2.27968
1383928773818,2.28985
1383928833818,2.26712
1383928893818,2.30512
1383928953818,2.27747
1383929013818,2.28051
1383929073818,2.27872
1383929133818,2.29226
1383929193818,2.27748
1383929253818,2.27991
1383929313818,2.30405
1383929373818,2.27008
1383929433818,2.29487
1383929493818,2.27539
1383929553818,2.29661
1383929613818,2.25426
1383929673818,2.29557
1383929733818,2.28885
1383929793818,2.27844
1383929853818,2.27630
1383929913818,2.28097
1383929973818,2.29238
1383930033830,2.26446
1383930093830,2.29254
1383930153830,2.28373
1383930213830,2.30318
1383930273830,2.26730
1383930333830,2.27696
1383930393830,2.29731
1383930453830,2.29469
1383930513830,2.29926
1383930573830,2.28254
1383930633830,2.29566
1383930693830,2.28242
1383930753830,2.27478
1383930813830,2.29065
1383930873830,2.29022
1383930933830,2.27889
1383930993830,2.27470
1383931053830,2.30542
1383931113830,2.29470
1383931173830,2.28908
1383931233830,2.29300
1383931293830,2.31243
1383931353830,2.28509
1383931413830,2.30226
1383931473830,2.30072
1383931533830,2.30648
1383931593830,2.27240
1383931653830,2.26330
1383931713830,2.26849
1383931773830,2.29064
1383931833830,2.26100
1383931893830,2.24623
1383931953830,2.27535
1383932013830,2.27432
1383932073830,2.28278
1383932133830,2.30092
1383932193830,2.30157
1383932253830,2.27947
1383932313830,2.26326
1383932373830,2.29451
1383932433830,2.28859
1383932493830,2.27425
1383932553830,2.26113
1383932613830,2.29790
1383932673830,2.26559
1383932733830,2.28753
1383932793830,2.27804
1383932853830,2.27889
1383932913830,2.27941
1383932973830,2.27321
1383933033830,2.27930
1383933093830,2.29271
1383933153830,2.11082
1383933213830,2.29353
1383933273830,2.28259
1383933333830,2.29490
1383933393830,2.28789
1383933453830,2.28034
1383933513830,2.26696
1383933573830,2.29861
1383933633841,2.27423
1383933693841,2.28850
1383933753841,2.28440
1383933813841,2.29999
1383933873841,2.29753
1383933933841,2.28913
1383933993841,2.27192
1383934053841,2.27336
1383934113841,2.27480
1383934173841,2.27305